EW5506 Weather Reports


time (UTC)temp
F
wind
direction
speed
knots
gust
knots
rain 1hr
in
rain 24hr
in
rain mn
in
humidity
%
barometer
mb
20260506194529 50 207 6.1 13.0 0.02 0.23 0.23 92 1011.1
20260506193107 50 239 8.7 13.9 0.02 0.23 0.23 92 1011.0
20260506191526 50 187 4.3 12.2 0.02 0.22 0.22 93 1010.8
20260506190057 50 221 1.7 4.3 0.02 0.21 0.21 92 1010.6
20260506184538 50 202 2.6 4.3 0.02 0.21 0.21 92 1010.4
20260506183115 50 209 2.6 5.2 0.02 0.20 0.20 92 1010.3
20260506181539 51 205 2.6 5.2 0.02 0.20 0.20 92 1010.2
20260506180104 51 219 3.5 6.1 0.02 0.20 0.20 92 1010.1
20260506174536 51 234 2.6 7.0 0.02 0.27 0.19 92 1009.9
20260506173105 51 219 3.5 8.7 0.03 0.27 0.19 92 1009.8
20260506171556 51 223 5.2 7.8 0.03 0.26 0.18 91 1009.6
20260506170113 51 258 4.3 9.6 0.04 0.26 0.18 91 1009.5
20260506164555 52 216 2.6 7.0 0.04 0.27 0.17 91 1009.4
20260506163116 52 225 2.6 6.1 0.03 0.25 0.16 91 1009.3
20260506161552 52 223 2.6 6.1 0.02 0.24 0.15 91 1009.3
20260506160122 52 223 3.5 7.0 0.02 0.24 0.14 90 1009.2
20260506154554 53 219 3.5 7.8 0.01 0.23 0.13 90 1009.1
20260506153123 53 238 4.3 7.8 0.01 0.22 0.13 89 1009.1
20260506151509 53 235 5.2 9.6 0.01 0.22 0.13 89 1009.0
20260506150052 53 236 4.3 8.7 0.01 0.22 0.13 90 1008.9
20260506144520 52 226 5.2 8.7 0.01 0.22 0.13 90 1008.9
20260506143056 52 235 3.5 9.6 0.01 0.21 0.12 90 1008.8
20260506141538 52 200 3.5 7.8 0.01 0.21 0.12 89 1008.9
20260506140111 52 236 7.0 12.2 0.01 0.21 0.12 88 1008.9
20260506134542 52 217 4.3 10.4 0.01 0.35 0.12 89 1008.9
20260506133115 52 221 7.0 10.4 0.00 0.35 0.11 89 1008.8
20260506131503 52 248 9.6 15.6 0.01 0.35 0.11 89 1008.7
20260506130018 52 187 9.6 13.9 0.02 0.35 0.11 90 1008.6
20260506124526 52 240 7.8 15.6 0.02 0.35 0.11 90 1008.5
20260506123055 53 244 7.8 15.6 0.04 0.35 0.11 91 1008.3
20260506121527 53 232 6.1 14.8 0.05 0.34 0.10 91 1008.2
20260506114552 54 258 7.8 16.5 0.07 0.32 0.09 92 1008.1
20260506113121 54 240 7.0 12.2 0.07 0.31 0.07 91 1008.0
20260506111503 55 237 2.6 10.4 0.05 0.28 0.06 91 1007.9
20260506110012 55 271 2.6 7.8 0.03 0.27 0.03 91 1007.9
20260506104513 55 237 3.5 7.0 0.02 0.25 0.02 89 1007.8
20260506103056 55 197 2.6 7.0 0.00 0.24 0.00 88 1007.6
20260506101534 56 220 5.2 7.8 0.00 0.24 0.00 86 1007.5
20260506100114 56 242 6.1 8.7 0.00 0.24 0.00 86 1007.3
20260506094554 56 237 4.3 10.4 0.00 0.24 0.00 85 1007.3
20260506093036 55 232 4.3 8.7 0.00 0.24 0.00 86 1007.2
20260506091520 55 222 3.5 7.8 0.00 0.24 0.00 85 1007.1
20260506090051 56 234 5.2 8.7 0.00 0.24 0.00 84 1007.1
20260506084529 56 236 6.1 8.7 0.00 0.24 0.00 83 1007.0
20260506083106 56 240 6.1 8.7 0.00 0.24 0.00 83 1006.8
20260506081543 56 219 5.2 9.6 0.00 0.24 0.00 84 1006.7
20260506080109 56 213 3.5 10.4 0.00 0.24 0.00 87 1006.6
20260506073105 55 237 3.5 8.7 0.00 0.24 0.00 89 1006.9
20260506071534 54 193 4.3 7.0 0.00 0.24 0.00 91 1006.8
20260506070104 54 223 3.5 8.7 0.00 0.24 0.00 92 1006.8
20260506061529 51 240 2.6 4.3 0.00 0.24 0.00 94 1007.0
20260506044515 48 180 0.9 3.5 0.00 0.27 0.00 94 1006.9
20260506043005 49 176 1.7 4.3 0.00 0.27 0.00 94 1007.3
20260506041554 49 171 1.7 5.2 0.00 0.27 0.00 94 1007.3
20260506040001 47 200 0.0 1.7 0.00 0.27 0.00 94 1007.2
20260506034551 48 200 0.0 3.5 0.00 0.27 0.00 94 1007.3
20260506033117 48 200 0.9 3.5 0.00 0.27 0.00 94 1007.4
20260506031558 48 223 0.0 2.6 0.00 0.27 0.00 94 1007.5
20260506030130 48 223 0.0 1.7 0.00 0.27 0.00 94 1007.5
20260506024552 48 223 0.0 1.7 0.00 0.27 0.00 94 1007.6
20260506023119 49 223 0.0 3.5 0.00 0.27 0.00 94 1007.7
20260506021559 49 224 0.9 1.7 0.00 0.27 0.00 94 1007.8
20260506020116 49 224 0.0 2.6 0.00 0.27 0.00 94 1007.8
20260506014601 49 224 0.0 1.7 0.00 0.27 0.00 94 1008.0
20260506013115 49 224 0.0 1.7 0.00 0.27 0.00 94 1008.2
20260506011542 49 224 0.9 2.6 0.00 0.27 0.00 94 1008.4
20260506010113 49 224 0.0 1.7 0.00 0.27 0.00 94 1008.5
20260506004556 49 224 0.9 3.5 0.00 0.27 0.00 94 1008.4
20260506003002 50 221 1.7 2.6 0.00 0.27 0.00 94 1008.4
20260506001553 50 221 0.0 2.6 0.00 0.27 0.00 93 1008.6
20260506000112 50 221 0.9 1.7 0.00 0.27 0.00 94 1008.8
20260505234544 50 221 0.0 1.7 0.00 0.27 0.00 93 1008.9
20260505233137 50 221 2.6 4.3 0.00 0.27 0.00 93 1009.0
20260505231547 50 215 0.9 2.6 0.00 0.27 0.00 93 1009.1
20260505230116 50 214 2.6 3.5 0.00 0.27 0.00 93 1009.3
20260505224556 50 184 0.9 1.7 0.00 0.27 0.00 93 1009.2
20260505223114 51 184 1.7 2.6 0.00 0.27 0.00 93 1009.2
20260505221540 51 184 0.0 0.0 0.00 0.27 0.00 93 1009.2
20260505220106 51 184 0.0 1.7 0.00 0.27 0.00 93 1009.2
20260505214537 51 184 0.9 1.7 0.00 0.27 0.27 93 1009.4
20260505213123 51 183 0.9 1.7 0.00 0.27 0.27 93 1009.4
20260505211545 52 183 0.9 2.6 0.00 0.27 0.27 93 1009.3
20260505210117 52 183 0.0 1.7 0.00 0.27 0.27 92 1009.2
20260505204554 52 183 0.0 0.9 0.00 0.27 0.27 92 1009.2
20260505203004 53 183 0.9 1.7 0.00 0.27 0.27 92 1009.3
20260505201601 53 183 0.0 3.5 0.00 0.27 0.27 92 1009.3
20260505201500 53 183 0.0 3.5 0.00 0.27 0.27 92 1009.3
20260505200016 54 213 2.6 3.5 0.00 0.27 0.27 92 1009.0